St. Petersburg, FL

12:04 AM EDT on March 28, 2017 (GMT -0400)
Whitted

Weather History for KSPG - May, 2012

Change the Weather History Date:

Friday, May 25, 2012

  Actual Average Record
Temperature  
Mean Temperature 86 °F -  
Max Temperature 93 °F 86 °F 96 °F (1956)
Min Temperature 78 °F 72 °F 64 °F (1951)
Cooling Degree Days 20    
Growing Degree Days 36 (Base 50)    
Moisture  
Dew Point 72 °F    
Average Humidity 67    
Maximum Humidity 87    
Minimum Humidity 45    
Precipitation  
Precipitation 0.00 in - - ()
Sea Level Pressure  
Sea Level Pressure 29.98 in    
Wind  
Wind Speed 8 mph (East)    
Max Wind Speed 15 mph    
Max Gust Speed -    
Visibility 10 miles    
Events Thunderstorm    
Averages and records for this station are not official NWS values.
T = Trace of Precipitation, MM = Missing Value Source: NWS Daily Summary

Daily Weather History Graph

Daily Weather History Graph

Search for Another Location

Airport or City:

Trip Planner

Search our weather history database for the weather conditions in past years. The results will help you decide how hot, cold, wet, or windy it might be!

Date:

Astronomy

May. 25, 2012 Rise Set
Actual Time 6:36 AM EDT 8:18 PM EDT
Civil Twilight 6:10 AM EDT 8:44 PM EDT
Nautical Twilight 5:39 AM EDT 9:16 PM EDT
Astronomical Twilight 5:06 AM EDT 9:48 PM EDT
Moon 10:28 AM EDT (5/25) No Moon Set
Length of Visible Light 14h 34m
Length of Day
13h 42m
Waxing Crescent, 19% of the Moon is Illuminated
May 25
Waxing Crescent
May 28
First Quarter
Jun 4
Full
Jun 11
Last Quarter
Jun 19
New

Hourly Weather History & Observations

Time (EDT) Temp. Heat Index Dew Point Humidity Pressure Visibility Wind Dir Wind Speed Gust Speed Precip Events Conditions
12:53 AM 80.1 °F 83.6 °F 71.1 °F 74% 29.92 in 10.0 mi East 10.4 mph - N/A   Clear
1:53 AM 80.1 °F 83.8 °F 72.0 °F 76% 29.91 in 10.0 mi East 9.2 mph - N/A   Clear
2:53 AM 79.0 °F - 72.0 °F 79% 29.91 in 10.0 mi East 8.1 mph - N/A   Clear
3:53 AM 79.0 °F - 73.0 °F 82% 29.91 in 10.0 mi East 11.5 mph - N/A   Clear
4:53 AM 78.1 °F - 72.0 °F 81% 29.92 in 10.0 mi East 10.4 mph - N/A   Clear
5:53 AM 78.1 °F - 73.0 °F 84% 29.94 in 8.0 mi East 10.4 mph - N/A   Clear
6:53 AM 78.1 °F - 73.0 °F 84% 29.96 in 10.0 mi East 8.1 mph - N/A   Partly Cloudy
7:53 AM 78.1 °F - 73.9 °F 87% 29.99 in 10.0 mi ENE 8.1 mph - N/A   Clear
8:53 AM 79.0 °F - 73.0 °F 82% 30.00 in 10.0 mi ENE 9.2 mph - N/A   Clear
9:53 AM 81.0 °F 86.2 °F 73.9 °F 79% 30.00 in 10.0 mi ENE 5.8 mph - N/A   Clear
10:53 AM 82.9 °F 88.8 °F 73.0 °F 72% 30.01 in 10.0 mi East 4.6 mph - N/A   Clear
11:53 AM 84.0 °F 90.2 °F 73.0 °F 69% 30.01 in 10.0 mi SE 5.8 mph - N/A   Clear
12:53 PM 84.9 °F 90.7 °F 72.0 °F 65% 30.00 in 10.0 mi SE 5.8 mph - N/A   Clear
1:53 PM 89.1 °F 95.0 °F 71.1 °F 55% 30.00 in 10.0 mi Calm Calm - N/A   Clear
2:53 PM 91.0 °F 96.6 °F 70.0 °F 50% 29.99 in 10.0 mi Calm Calm - N/A   Clear
3:53 PM 93.0 °F 99.0 °F 70.0 °F 47% 29.97 in 10.0 mi Calm Calm - N/A   Clear
4:53 PM 91.9 °F 95.9 °F 68.0 °F 45% 29.96 in 10.0 mi Calm Calm - N/A   Partly Cloudy
5:53 PM 91.0 °F 97.6 °F 71.1 °F 52% 29.95 in 10.0 mi Calm Calm - N/A   Clear
6:53 PM 91.9 °F 101.3 °F 73.9 °F 55% 29.95 in 10.0 mi NNE 3.5 mph - N/A   Clear
7:53 PM 88.0 °F 96.5 °F 73.9 °F 63% 29.97 in 10.0 mi East 11.5 mph - N/A   Overcast
8:53 PM 87.1 °F 94.5 °F 73.0 °F 63% 30.00 in 10.0 mi ESE 13.8 mph - N/A   Mostly Cloudy
9:03 PM 87.8 °F 93.8 °F 71.6 °F 58% 30.00 in 10.0 mi ESE 13.8 mph - N/A Thunderstorm Mostly Cloudy
9:18 PM 87.8 °F 93.8 °F 71.6 °F 58% 30.01 in 10.0 mi ESE 15.0 mph - N/A   Mostly Cloudy
9:53 PM 86.0 °F 91.5 °F 71.1 °F 61% 30.02 in 10.0 mi ESE 13.8 mph - N/A   Partly Cloudy
10:53 PM 84.0 °F 88.4 °F 70.0 °F 63% 30.04 in 10.0 mi ESE 13.8 mph - N/A   Partly Cloudy
11:53 PM 82.0 °F 86.3 °F 71.1 °F 69% 30.04 in 10.0 mi ESE 13.8 mph - N/A   Clear